Regional Weather Roundup
Issued by NWS Northern Indiana

Home | Current Version | Previous Version | Graphics & Text | Print | Product List | Glossary On
Versions: 1 2 3 4 5 6 7 8 9 10 11 12 13 14 15 16 17 18 19 20 21 22 23 24 25 26 27 28 29 30 31 32 33 34 35 36 37 38 39 40 41 42 43 44 45 46 47 48 49 50
000
ASUS43 KIWX 290300
RWRIWX

KIWX WEATHER ROUNDUP
NATIONAL WEATHER SERVICE NORTHERN INDIANA
1100 PM EDT THU MAY 28 2015

NOTE: "FAIR" INDICATES FEW OR NO CLOUDS BELOW 12,000 FEET WITH NO
SIGNIFICANT WEATHER AND/OR OBSTRUCTIONS TO VISIBILITY.

* THESE STATIONS ARE NOT UNDER NWS QUALITY CONTROL. THEY ALSO MAY NOT
  REPORT WEATHER SUCH AS PRECIPITATION OR FOG.

INZ001>027-290400-
NORTHERN INDIANA

CITY           SKY/WX    TMP DP  RH WIND       PRES   REMARKS
GARY*          PTCLDY    61  59  94 CALM      30.10R
SOUTH BEND     CLEAR     73  57  57 E10       30.13S
GOSHEN         CLEAR     65  57  75 SE7       30.14S
ANGOLA*        CLEAR     70  55  60 E8        30.18R
FORT WAYNE     PTCLDY    70  61  73 E9        30.16R

$$
INZ028>050-290400-
CENTRAL INDIANA

CITY           SKY/WX    TMP DP  RH WIND       PRES   REMARKS
LAFAYETTE      MOCLDY    70  60  70 SE5       30.10R
KOKOMO*        MOCLDY    70  57  64 SE8       30.13R
MUNCIE*        CLEAR     74  60  61 S6        30.15R
INDIANAPOLIS   PTCLDY    74  61  63 S7        30.13R

$$
MIZ043>046-050>051-056>058-064>065-071>073-077>080-290400-
SOUTHWEST LOWER MICHIGAN

CITY           SKY/WX    TMP DP  RH WIND       PRES   REMARKS
BATTLE CREEK   CLEAR     71  56  58 SE9       30.17S
BENTON HARBOR  CLEAR     66  55  67 E7        30.11F
COLDWATER*     CLEAR     67  53  60 SE7       30.18R
HILLSDALE*     CLEAR     67  51  56 E8        30.20S
HOLLAND        CLEAR     67  56  67 SE7       30.14S
GRAND RAPIDS   PTCLDY    67  56  67 SE6       30.15S
KALAMAZOO      CLEAR     67  55  65 E3        30.16S
STURGIS*       CLEAR     70  55  60 E10       30.16R
THREE RIVERS*  FAIR      70  55  57 E6        30.16R

$$
OHZ001>008-015>018-024>025-290400-
NORTHWEST OHIO

CITY           SKY/WX    TMP DP  RH WIND       PRES   REMARKS
DEFIANCE       CLEAR     69  57  65 E10       30.18R
FINDLAY        PTCLDY    70  56  61 E10       30.19R
TOLEDO EXPRESS PTCLDY    64  55  72 E8        30.20R
TOLEDO METCALF CLEAR     64  55  72 E7        30.22R
LIMA           PTCLDY    72  60  66 E8        30.18R

$$
AND FOR LAKE MICHIGAN COASTAL AND OPEN LAKE BUOY OBSERVATIONS

STATION/POSITION TEMP    WIND        PRES    VSBY  WAVE
                 AIR SEA DIR/SP/G                  HT/PER
                 (F)     (DEG/KT/KT) (MB)    (MI)  (FT/S)
MICHIGAN CITY     74      70/  7/  7   N/A
BURNS HARBOR      71     100/  8/ 10 1019.6S
SAINT JOSEPH      71      CALM  /  2 1020.7S
SOUTH LAKE BUOY   46 38   90/  8/ 10 1020.0          0
4 MI NW BRIDGMAN  69 60  150/  8/ 10   N/A           0
MICHIGAN CITY     62 55  100/  4/  6   N/A           1

$$
&&



USA.gov is the U.S. government's official web portal to all federal, state and local government web resources and services.